Change the Weather History Date:

Friday, October 18, 2013

  Actual Average Record
Temperature  
Mean Temperature 45 °F -  
Max Temperature 46 °F 43 °F 55 °F (1981)
Min Temperature 44 °F 36 °F 22 °F (1992)
Degree Days  
Heating Degree Days 20    
Moisture  
Dew Point 41 °F    
Average Humidity 84    
Maximum Humidity 87    
Minimum Humidity 79    
Precipitation  
Precipitation 0.01 in - - ()
Sea Level Pressure  
Sea Level Pressure 30.22 in    
Wind  
Wind Speed 9 mph (East)    
Max Wind Speed 16 mph    
Max Gust Speed 26 mph    
Visibility 10 miles    
Events Rain    
Averages and records for this station are not official NWS values.
T = Trace of Precipitation, MM = Missing Value Source: NWS Daily Summary

Daily Weather History Graph

Daily Weather History Graph

Search for Another Location

Airport or City:

Trip Planner

Search our weather history database for the weather conditions in past years. The results will help you decide how hot, cold, wet, or windy it might be!

Date:

Astronomy

Oct. 18, 2013 Rise Set
Actual Time 7:47 AM AKDT 5:45 PM AKDT
Civil Twilight 7:06 AM AKDT 6:26 PM AKDT
Nautical Twilight 6:19 AM AKDT 7:13 PM AKDT
Astronomical Twilight 5:31 AM AKDT 8:00 PM AKDT
Moon 5:32 PM AKDT (10/18) 7:34 AM AKDT (10/18)
Length of Visible Light 11h 20m
Length of Day
9h 57m
Full, 100% of the Moon is Illuminated
Oct 18
Full
Oct 18
Full
Oct 26
Last Quarter
Nov 3
New
Nov 9
First Quarter

Hourly Weather History & Observations

Time (AKDT) Temp. Windchill Dew Point Humidity Pressure Visibility Wind Dir Wind Speed Gust Speed Precip Events Conditions
12:49 AM 44.6 °F 41.4 °F 39.2 °F 81% 30.27 in 10.0 mi Variable 5.8 mph - N/A   Overcast
12:54 AM 46.0 °F 43.1 °F 39.9 °F 79% 30.28 in 10.0 mi ESE 5.8 mph - N/A   Overcast
1:54 AM 45.0 °F 40.1 °F 39.9 °F 82% 30.28 in 10.0 mi ENE 9.2 mph - N/A   Mostly Cloudy
2:23 AM 44.6 °F 40.2 °F 39.2 °F 81% 30.27 in 10.0 mi ENE 8.1 mph - N/A   Mostly Cloudy
2:41 AM 44.6 °F 40.2 °F 39.2 °F 81% 30.28 in 10.0 mi East 8.1 mph 19.6 mph N/A   Scattered Clouds
2:54 AM 44.1 °F 40.8 °F 39.9 °F 85% 30.29 in 10.0 mi ENE 5.8 mph - N/A   Mostly Cloudy
3:12 AM 44.6 °F 40.2 °F 39.2 °F 81% 30.28 in 10.0 mi East 8.1 mph - N/A   Overcast
3:54 AM 45.0 °F 40.1 °F 39.9 °F 82% 30.28 in 10.0 mi ENE 9.2 mph 17.3 mph N/A   Mostly Cloudy
4:54 AM 45.0 °F 40.1 °F 39.9 °F 82% 30.27 in 10.0 mi ENE 9.2 mph 16.1 mph N/A   Mostly Cloudy
5:16 AM 44.6 °F 40.2 °F 39.2 °F 81% 30.27 in 10.0 mi ENE 8.1 mph 17.3 mph N/A   Overcast
5:54 AM 45.0 °F 40.6 °F 39.9 °F 82% 30.27 in 10.0 mi ENE 8.1 mph 16.1 mph N/A   Overcast
6:54 AM 45.0 °F 40.1 °F 39.9 °F 82% 30.26 in 10.0 mi East 9.2 mph 16.1 mph N/A   Overcast
7:54 AM 45.0 °F 38.9 °F 41.0 °F 86% 30.25 in 10.0 mi ESE 12.7 mph 18.4 mph N/A   Overcast
8:54 AM 45.0 °F 39.7 °F 41.0 °F 86% 30.23 in 10.0 mi East 10.4 mph 17.3 mph N/A   Overcast
9:54 AM 46.0 °F 41.0 °F 39.9 °F 79% 30.23 in 10.0 mi ESE 10.4 mph 19.6 mph N/A   Overcast
10:54 AM 45.0 °F 42.6 °F 41.0 °F 86% 30.24 in 10.0 mi Variable 4.6 mph 18.4 mph 0.00 in Rain Light Rain
11:54 AM 45.0 °F 40.1 °F 41.0 °F 86% 30.23 in 10.0 mi East 9.2 mph 18.4 mph 0.01 in Rain Light Rain
12:54 PM 45.0 °F 40.1 °F 41.0 °F 86% 30.22 in 10.0 mi East 9.2 mph 18.4 mph 0.00 in Rain Light Rain
1:54 PM 46.0 °F 41.9 °F 41.0 °F 83% 30.21 in 10.0 mi East 8.1 mph 19.6 mph 0.00 in Rain Light Rain
2:54 PM 46.0 °F 40.2 °F 41.0 °F 83% 30.19 in 10.0 mi East 12.7 mph 20.7 mph 0.00 in Rain Light Rain
3:54 PM 46.0 °F 41.0 °F 41.0 °F 83% 30.18 in 10.0 mi East 10.4 mph 25.3 mph 0.00 in   Overcast
4:54 PM 46.0 °F 39.3 °F 41.0 °F 83% 30.17 in 10.0 mi ENE 16.1 mph 26.5 mph N/A   Overcast
5:54 PM 46.9 °F - 42.1 °F 83% 30.15 in 10.0 mi East 11.5 mph 23.0 mph N/A   Overcast
6:54 PM 46.0 °F 40.2 °F 42.1 °F 86% 30.14 in 10.0 mi East 12.7 mph 20.7 mph N/A   Overcast
7:54 PM 46.9 °F - 42.1 °F 83% 30.14 in 10.0 mi East 13.8 mph 24.2 mph N/A   Overcast
8:54 PM 46.9 °F - 43.0 °F 86% 30.15 in 10.0 mi East 11.5 mph 21.9 mph N/A   Overcast
9:54 PM 46.9 °F - 43.0 °F 86% 30.15 in 10.0 mi East 11.5 mph 19.6 mph N/A   Overcast
10:16 PM 46.4 °F 41.1 °F 42.8 °F 87% 30.14 in 10.0 mi ENE 11.5 mph 23.0 mph N/A   Overcast
10:54 PM 46.9 °F - 43.0 °F 86% 30.14 in 10.0 mi East 11.5 mph 21.9 mph N/A   Overcast
11:41 PM 46.4 °F 40.7 °F 42.8 °F 87% 30.14 in 10.0 mi East 12.7 mph 25.3 mph N/A   Overcast
11:54 PM 46.9 °F - 43.0 °F 86% 30.14 in 10.0 mi East 6.9 mph 19.6 mph N/A   Overcast